CW2857 Weather Reports


Display with metric or nautical units.
time (UTC)temp
F
wind
direction
speed
MPH
gust
MPH
rain 1hr
in
rain 24hr
in
rain mn
in
humidity
%
barometer
mb
20260507234002 83 282 11.0 23.0 0.00 0.00 0.00 12 1007.7
20260507233502 83 240 11.0 23.0 0.00 0.00 0.00 12 1007.7
20260507233002 83 263 14.0 24.0 0.00 0.00 0.00 11 1007.6
20260507232501 83 277 12.0 24.0 0.00 0.00 0.00 11 1007.5
20260507232001 84 237 9.0 20.0 0.00 0.00 0.00 11 1007.7
20260507231501 83 194 11.0 20.0 0.00 0.00 0.00 11 1007.6
20260507231001 84 175 7.0 19.0 0.00 0.00 0.00 11 1007.6
20260507230600 84 217 9.0 16.0 0.00 0.00 0.00 12 1007.6
20260507230101 83 250 7.0 24.0 0.00 0.00 0.00 12 1007.5
20260507225559 84 262 13.0 24.0 0.00 0.00 0.00 11 1007.7
20260507225100 84 188 10.0 17.0 0.00 0.00 0.00 12 1007.7
20260507224606 84 303 5.0 15.0 0.00 0.00 0.00 12 1007.6
20260507224058 83 255 9.0 20.0 0.00 0.00 0.00 12 1007.8
20260507223602 83 279 11.0 20.0 0.00 0.00 0.00 12 1007.8
20260507223059 83 265 10.0 20.0 0.00 0.00 0.00 12 1007.8
20260507222559 83 240 8.0 20.0 0.00 0.00 0.00 12 1007.9
20260507222057 83 219 3.0 20.0 0.00 0.00 0.00 12 1007.9
20260507221555 84 209 9.0 20.0 0.00 0.00 0.00 12 1008.0
20260507221055 84 261 8.0 16.0 0.00 0.00 0.00 11 1008.0
20260507220554 84 206 6.0 15.0 0.00 0.00 0.00 12 1008.1
20260507220054 83 256 8.0 17.0 0.00 0.00 0.00 13 1008.2
20260507215557 83 192 6.0 22.0 0.00 0.00 0.00 13 1008.2
20260507215053 84 217 12.0 22.0 0.00 0.00 0.00 13 1008.3
20260507214553 84 197 4.0 14.0 0.00 0.00 0.00 13 1008.3
20260507214053 84 306 10.0 16.0 0.00 0.00 0.00 13 1008.4
20260507213550 83 191 4.0 11.0 0.00 0.00 0.00 14 1008.5
20260507213051 83 259 4.0 15.0 0.00 0.00 0.00 14 1008.6
20260507212550 83 219 6.0 14.0 0.00 0.00 0.00 15 1008.6
20260507212048 82 189 6.0 17.0 0.00 0.00 0.00 15 1008.6
20260507211551 83 241 10.0 18.0 0.00 0.00 0.00 15 1008.7
20260507211047 82 217 9.0 15.0 0.00 0.00 0.00 15 1008.7
20260507210546 81 192 6.0 17.0 0.00 0.00 0.00 16 1008.7
20260507210111 82 246 10.0 17.0 0.00 0.00 0.00 15 1008.8
20260507205545 82 221 7.0 15.0 0.00 0.00 0.00 15 1008.7
20260507205048 82 215 6.0 17.0 0.00 0.00 0.00 15 1009.0
20260507204546 82 229 5.0 16.0 0.00 0.00 0.00 15 1009.0
20260507204042 82 259 8.0 17.0 0.00 0.00 0.00 14 1009.2
20260507203542 81 213 8.0 17.0 0.00 0.00 0.00 14 1009.2
20260507203042 81 197 9.0 14.0 0.00 0.00 0.00 15 1009.2
20260507202541 81 198 6.0 14.0 0.00 0.00 0.00 15 1009.3
20260507202040 81 220 10.0 14.0 0.00 0.00 0.00 16 1009.5
20260507201539 81 220 8.0 15.0 0.00 0.00 0.00 16 1009.5
20260507201039 80 271 6.0 15.0 0.00 0.00 0.00 16 1009.5
20260507200538 80 196 9.0 14.0 0.00 0.00 0.00 16 1009.6
20260507200052 80 222 6.0 18.0 0.00 0.00 0.00 15 1009.6
20260507195539 79 196 11.0 18.0 0.00 0.00 0.00 16 1009.6
20260507195037 80 171 9.0 17.0 0.00 0.00 0.00 16 1009.7
20260507194536 79 200 9.0 15.0 0.00 0.00 0.00 16 1009.8
20260507194035 80 209 9.0 17.0 0.00 0.00 0.00 16 1009.8
20260507193535 79 213 11.0 19.0 0.00 0.00 0.00 16 1009.8
20260507193101 79 165 6.0 16.0 0.00 0.00 0.00 15 1009.9
20260507192532 78 200 9.0 16.0 0.00 0.00 0.00 16 1010.0
20260507192032 78 194 9.0 16.0 0.00 0.00 0.00 15 1010.0
20260507191532 79 276 6.0 14.0 0.00 0.00 0.00 15 1010.1
20260507191032 78 242 9.0 14.0 0.00 0.00 0.00 15 1010.3
20260507190531 78 200 7.0 16.0 0.00 0.00 0.00 15 1010.3
20260507190034 79 209 9.0 20.0 0.00 0.00 0.00 15 1010.5
20260507185529 78 227 10.0 16.0 0.00 0.00 0.00 15 1010.5
20260507185028 78 189 10.0 17.0 0.00 0.00 0.00 15 1010.7
20260507184527 77 221 7.0 21.0 0.00 0.00 0.00 16 1010.7
20260507184026 78 211 8.0 15.0 0.00 0.00 0.00 16 1010.8
20260507183530 78 242 10.0 15.0 0.00 0.00 0.00 16 1010.8
20260507183036 78 194 9.0 15.0 0.00 0.00 0.00 15 1010.9
20260507182526 78 259 8.0 16.0 0.00 0.00 0.00 16 1011.0
20260507182026 77 275 6.0 16.0 0.00 0.00 0.00 16 1010.9
20260507181525 77 193 7.0 13.0 0.00 0.00 0.00 16 1010.9
20260507181028 77 223 7.0 12.0 0.00 0.00 0.00 16 1011.0
20260507180526 76 231 2.0 10.0 0.00 0.00 0.00 22 1011.0
20260507180026 76 184 4.0 10.0 0.00 0.00 0.00 23 1011.0
20260507175523 77 328 2.0 9.0 0.00 0.00 0.00 22 1011.0
20260507175026 77 188 4.0 11.0 0.00 0.00 0.00 22 1011.1
20260507174521 79 236 5.0 11.0 0.00 0.00 0.00 23 1011.1
20260507174022 78 31 3.0 11.0 0.00 0.00 0.00 23 1011.1
20260507173520 77 350 3.0 8.0 0.00 0.00 0.00 24 1011.2
20260507173019 75 346 1.0 8.0 0.00 0.00 0.00 26 1011.3
20260507172518 74 333 3.0 13.0 0.00 0.00 0.00 27 1011.3
20260507172018 74 293 6.0 13.0 0.00 0.00 0.00 26 1011.4
20260507171516 74 324 4.0 11.0 0.00 0.00 0.00 25 1011.4
20260507171018 74 298 5.0 11.0 0.00 0.00 0.00 25 1011.4
20260507170516 74 234 2.0 10.0 0.00 0.00 0.00 27 1011.4
20260507170014 73 339 3.0 9.0 0.00 0.00 0.00 27 1011.4
20260507165514 72 244 3.0 10.0 0.00 0.00 0.00 28 1011.5
20260507165018 72 229 6.0 11.0 0.00 0.00 0.00 27 1011.6
20260507164613 73 255 5.0 11.0 0.00 0.00 0.00 28 1011.6
20260507164012 72 236 5.0 15.0 0.00 0.00 0.00 28 1011.7
20260507163515 72 194 6.0 15.0 0.00 0.00 0.00 30 1011.6
20260507163012 71 351 3.0 12.0 0.00 0.00 0.00 30 1011.7
20260507162513 70 211 6.0 14.0 0.00 0.00 0.00 31 1011.7
20260507162009 70 265 9.0 14.0 0.00 0.00 0.00 32 1011.7
20260507161512 69 251 8.0 13.0 0.00 0.00 0.00 33 1011.5
20260507161006 69 246 8.0 17.0 0.00 0.00 0.00 34 1011.6
20260507160507 69 249 10.0 20.0 0.00 0.00 0.00 34 1011.6
20260507160008 69 247 8.0 16.0 0.00 0.00 0.00 35 1011.7
20260507155504 68 198 9.0 16.0 0.00 0.00 0.00 35 1011.7
20260507155004 68 285 8.0 14.0 0.00 0.00 0.00 36 1011.6
20260507154503 68 25 6.0 13.0 0.00 0.00 0.00 36 1011.6
20260507154003 67 265 3.0 12.0 0.00 0.00 0.00 37 1011.6
20260507153506 67 261 4.0 11.0 0.00 0.00 0.00 37 1011.7
20260507153009 67 273 7.0 14.0 0.00 0.00 0.00 38 1011.7
20260507152502 67 277 7.0 14.0 0.00 0.00 0.00 38 1011.7
20260507152002 66 269 7.0 14.0 0.00 0.00 0.00 39 1011.7
20260507151504 66 283 9.0 14.0 0.00 0.00 0.00 39 1011.8
20260507151001 66 258 8.0 13.0 0.00 0.00 0.00 39 1011.8
20260507150501 66 276 7.0 14.0 0.00 0.00 0.00 40 1011.8
20260507150101 65 301 8.0 15.0 0.00 0.00 0.00 41 1011.8
20260507150001 65 238 8.0 17.0 0.00 0.00 0.00 41 1011.9
20260507145600 65 263 7.0 17.0 0.00 0.00 0.00 41 1011.9
20260507145100 65 260 4.0 12.0 0.00 0.00 0.00 41 1011.9
20260507144606 64 268 7.0 15.0 0.00 0.00 0.00 42 1011.8
20260507144100 64 263 8.0 14.0 0.00 0.00 0.00 42 1011.8
20260507143600 63 258 8.0 16.0 0.00 0.00 0.00 43 1011.8
20260507143113 63 231 9.0 15.0 0.00 0.00 0.00 44 1011.7
20260507142558 63 230 8.0 15.0 0.00 0.00 0.00 45 1011.7
20260507142058 62 246 9.0 15.0 0.00 0.00 0.00 45 1011.7
20260507141619 62 242 8.0 18.0 0.00 0.00 0.00 45 1011.7
20260507141059 62 267 10.0 18.0 0.00 0.00 0.00 45 1011.6
20260507140558 62 263 9.0 14.0 0.00 0.00 0.00 45 1011.6
20260507140109 62 234 8.0 14.0 0.00 0.00 0.00 50 1011.7
20260507135600 62 224 6.0 18.0 0.00 0.00 0.00 46 1011.6
20260507135057 62 250 10.0 18.0 0.00 0.00 0.00 47 1011.6
20260507134607 61 236 9.0 17.0 0.00 0.00 0.00 47 1011.5
20260507134056 61 259 10.0 17.0 0.00 0.00 0.00 48 1011.4
20260507133556 61 267 10.0 18.0 0.00 0.00 0.00 47 1011.4
20260507133055 61 248 11.0 18.0 0.00 0.00 0.00 47 1011.4
20260507132554 61 240 12.0 17.0 0.00 0.00 0.00 47 1011.3
20260507132053 61 250 7.0 18.0 0.00 0.00 0.00 47 1011.2
20260507131553 61 262 9.0 18.0 0.00 0.00 0.00 47 1011.2
20260507131052 61 211 7.0 12.0 0.00 0.00 0.00 48 1011.2
20260507130551 60 203 7.0 13.0 0.00 0.00 0.00 48 1011.2
20260507130050 60 225 7.0 12.0 0.00 0.00 0.00 48 1011.2
20260507125550 60 225 4.0 8.0 0.00 0.00 0.00 48 1011.1
20260507125051 61 212 3.0 7.0 0.00 0.00 0.00 48 1011.2
20260507124547 61 227 3.0 7.0 0.00 0.00 0.00 48 1011.2
20260507124047 61 234 2.0 7.0 0.00 0.00 0.00 47 1011.3
20260507123547 61 276 2.0 5.0 0.00 0.00 0.00 46 1011.3
20260507123048 61 235 1.0 8.0 0.00 0.00 0.00 45 1011.3
20260507122546 62 225 3.0 8.0 0.00 0.00 0.00 45 1011.4
20260507122047 62 264 4.0 10.0 0.00 0.00 0.00 45 1011.4
20260507121545 62 237 4.0 10.0 0.00 0.00 0.00 43 1011.4
20260507121044 61 225 3.0 7.0 0.00 0.00 0.00 45 1011.4
20260507120544 61 259 4.0 10.0 0.00 0.00 0.00 45 1011.5
20260507120047 61 258 5.0 10.0 0.00 0.00 0.00 47 1011.5
20260507115544 62 259 4.0 9.0 0.00 0.00 0.00 46 1011.5
20260507115044 62 269 6.0 10.0 0.00 0.00 0.00 46 1011.5
20260507114551 61 283 3.0 7.0 0.00 0.00 0.00 47 1011.5
20260507114045 61 264 4.0 7.0 0.00 0.00 0.00 47 1011.5
20260507113542 61 267 4.0 7.0 0.00 0.00 0.00 47 1011.6
20260507113043 61 256 3.0 7.0 0.00 0.00 0.00 47 1011.5
20260507112541 61 268 3.0 7.0 0.00 0.00 0.00 45 1011.7
20260507112041 61 259 2.0 5.0 0.00 0.00 0.00 43 1011.6
20260507111552 61 285 1.0 4.0 0.00 0.00 0.00 40 1011.6
20260507111039 61 277 2.0 4.0 0.00 0.00 0.00 40 1011.6
20260507110539 61 279 2.0 4.0 0.00 0.00 0.00 40 1011.7
20260507110139 62 279 1.0 8.0 0.00 0.00 0.00 40 1011.7
20260507105537 62 260 4.0 8.0 0.00 0.00 0.00 40 1011.8
20260507105037 62 267 3.0 5.0 0.00 0.00 0.00 40 1011.8
20260507104537 62 254 3.0 6.0 0.00 0.00 0.00 41 1011.8
20260507104039 62 261 2.0 6.0 0.00 0.00 0.00 41 1011.7
20260507103536 62 242 4.0 6.0 0.00 0.00 0.00 40 1011.8
20260507103036 62 257 3.0 5.0 0.00 0.00 0.00 41 1011.8
20260507102534 63 267 3.0 5.0 0.00 0.00 0.00 42 1011.7
20260507102034 63 261 2.0 9.0 0.00 0.00 0.00 42 1011.7
20260507101533 64 287 5.0 10.0 0.00 0.00 0.00 42 1011.8
20260507101034 63 279 5.0 10.0 0.00 0.00 0.00 43 1011.8
20260507100532 63 278 6.0 10.0 0.00 0.00 0.00 42 1011.8
20260507100034 63 279 6.0 10.0 0.00 0.00 0.00 44 1011.8
20260507095531 63 285 5.0 9.0 0.00 0.00 0.00 44 1011.8
20260507095033 63 281 3.0 9.0 0.00 0.00 0.00 39 1011.8
20260507094529 63 298 3.0 9.0 0.00 0.00 0.00 41 1011.9
20260507094031 64 23 2.0 6.0 0.00 0.00 0.00 38 1011.9
20260507093527 64 333 2.0 6.0 0.00 0.00 0.00 39 1011.9
20260507093034 64 306 3.0 8.0 0.00 0.00 0.00 42 1011.9
20260507092526 65 328 2.0 8.0 0.00 0.00 0.00 39 1011.9
20260507092025 65 307 4.0 9.0 0.00 0.00 0.00 42 1011.9
20260507091525 65 302 5.0 9.0 0.00 0.00 0.00 42 1012.0
20260507091024 65 294 3.0 8.0 0.00 0.00 0.00 42 1011.9
20260507090522 66 290 1.0 9.0 0.00 0.00 0.00 41 1012.0
20260507090022 66 261 4.0 11.0 0.00 0.00 0.00 40 1011.9
20260507085521 66 278 5.0 11.0 0.00 0.00 0.00 40 1012.0
20260507085022 66 273 7.0 11.0 0.00 0.00 0.00 40 1012.1
20260507084521 66 251 6.0 11.0 0.00 0.00 0.00 38 1012.1
20260507084025 66 257 7.0 11.0 0.00 0.00 0.00 39 1012.0
20260507083519 66 246 5.0 12.0 0.00 0.00 0.00 40 1012.1
20260507083021 67 246 7.0 16.0 0.00 0.00 0.00 39 1012.1
20260507082516 67 258 7.0 16.0 0.00 0.00 0.00 38 1012.2
20260507082016 67 270 8.0 16.0 0.00 0.00 0.00 38 1012.2
20260507081528 67 265 7.0 14.0 0.00 0.00 0.00 37 1012.2
20260507081015 67 263 6.0 13.0 0.00 0.00 0.00 38 1012.1
20260507080520 67 261 9.0 13.0 0.00 0.00 0.00 38 1012.1
20260507080019 68 237 5.0 11.0 0.00 0.00 0.00 38 1012.1
20260507075513 68 249 7.0 11.0 0.00 0.00 0.00 37 1012.1
20260507075012 68 244 6.0 15.0 0.00 0.00 0.00 37 1012.1
20260507074511 68 267 7.0 15.0 0.00 0.00 0.00 37 1012.1
20260507074014 67 284 5.0 10.0 0.00 0.00 0.00 38 1012.1
20260507073511 68 227 6.0 10.0 0.00 0.00 0.00 38 1012.1
20260507073011 68 279 6.0 12.0 0.00 0.00 0.00 38 1012.0
20260507072511 68 230 7.0 14.0 0.00 0.00 0.00 38 1012.1
20260507072010 68 249 7.0 14.0 0.00 0.00 0.00 38 1012.1
20260507071509 68 215 8.0 14.0 0.00 0.00 0.00 38 1012.0
20260507071008 67 243 5.0 11.0 0.00 0.00 0.00 38 1012.1
20260507070512 67 247 5.0 11.0 0.00 0.00 0.00 38 1012.0
20260507070010 68 252 6.0 11.0 0.00 0.00 0.00 37 1012.1
20260507065509 68 240 4.0 10.0 0.00 0.00 0.00 36 1012.1
20260507065005 68 214 5.0 8.0 0.00 0.00 0.00 34 1012.1
20260507064505 69 242 5.0 10.0 0.00 0.00 0.00 33 1012.0
20260507064005 69 228 5.0 13.0 0.00 0.00 0.00 32 1012.1
20260507063505 69 258 7.0 13.0 0.00 0.00 0.00 32 1012.1
20260507063004 69 283 5.0 10.0 0.00 0.00 0.00 29 1012.1
20260507062504 68 265 4.0 11.0 0.00 0.00 0.00 29 1012.1
20260507062006 68 266 7.0 11.0 0.00 0.00 0.00 28 1012.1
20260507061507 68 233 3.0 7.0 0.00 0.00 0.00 27 1012.1
20260507061004 68 235 4.0 8.0 0.00 0.00 0.00 25 1012.1
20260507060504 69 211 4.0 8.0 0.00 0.00 0.00 24 1012.1
20260507060004 69 229 3.0 8.0 0.00 0.00 0.00 22 1012.1
20260507055504 68 225 3.0 9.0 0.00 0.00 0.00 21 1012.2
20260507055003 68 221 3.0 9.0 0.00 0.00 0.00 21 1012.2
20260507054504 68 244 3.0 8.0 0.00 0.00 0.00 21 1012.1
20260507054004 67 235 4.0 9.0 0.00 0.00 0.00 21 1012.1
20260507053502 63 199 5.0 9.0 0.00 0.00 0.00 23 1012.2
20260507053003 63 246 1.0 3.0 0.00 0.00 0.00 23 1012.2
20260507052502 63 249 0.0 1.0 0.00 0.00 0.00 23 1012.1
20260507052002 64 249 0.0 1.0 0.00 0.00 0.00 23 1012.1
20260507051502 65 249 0.0 2.0 0.00 0.00 0.00 22 1012.1
20260507051001 65 249 0.0 3.0 0.00 0.00 0.00 21 1012.1
20260507050501 65 249 1.0 3.0 0.00 0.00 0.00 21 1012.1
20260507050007 66 249 0.0 4.0 0.00 0.00 0.00 21 1012.0
20260507045501 66 248 2.0 4.0 0.00 0.00 0.00 21 1012.0
20260507045002 65 194 0.0 2.0 0.00 0.00 0.00 22 1012.0
20260507044602 65 192 0.0 2.0 0.00 0.00 0.00 21 1012.0
20260507044100 66 192 0.0 2.0 0.00 0.00 0.00 21 1012.0
20260507043600 67 192 0.0 2.0 0.00 0.00 0.00 20 1011.9
20260507043103 67 192 0.0 2.0 0.00 0.00 0.00 19 1011.8
20260507042559 68 192 1.0 3.0 0.00 0.00 0.00 19 1011.8
20260507042100 68 194 1.0 3.0 0.00 0.00 0.00 19 1011.7
20260507041612 68 195 1.0 3.0 0.00 0.00 0.00 19 1011.7
20260507041100 69 202 1.0 4.0 0.00 0.00 0.00 19 1011.7
20260507040600 69 202 1.0 4.0 0.00 0.00 0.00 18 1011.7
20260507040100 69 216 1.0 2.0 0.00 0.00 0.00 18 1011.7
20260507035559 69 226 1.0 2.0 0.00 0.00 0.00 19 1011.6
20260507035059 69 219 1.0 3.0 0.00 0.00 0.00 18 1011.7
20260507034610 69 261 2.0 4.0 0.00 0.00 0.00 18 1011.6
20260507034058 70 260 2.0 4.0 0.00 0.00 0.00 17 1011.5
20260507033602 71 259 2.0 6.0 0.00 0.00 0.00 17 1011.5
20260507033058 72 265 2.0 6.0 0.00 0.00 0.00 16 1011.4
20260507032558 73 262 3.0 5.0 0.00 0.00 0.00 15 1011.4
20260507032057 73 283 3.0 6.0 0.00 0.00 0.00 15 1011.5
20260507031600 73 260 2.0 7.0 0.00 0.00 0.00 15 1011.4
20260507031059 73 279 3.0 7.0 0.00 0.00 0.00 15 1011.5
20260507030558 73 271 4.0 7.0 0.00 0.00 0.00 15 1011.5
20260507025556 73 269 3.0 7.0 0.00 0.00 0.00 15 1011.4
20260507025057 74 277 3.0 6.0 0.00 0.00 0.00 15 1011.4
20260507024601 74 280 2.0 7.0 0.00 0.00 0.00 15 1011.3
20260507024055 74 296 2.0 8.0 0.00 0.00 0.00 15 1011.3
20260507023556 75 301 2.0 8.0 0.00 0.00 0.00 15 1011.3
20260507023111 75 283 3.0 10.0 0.00 0.00 0.00 15 1011.3
20260507022556 76 339 4.0 10.0 0.00 0.00 0.00 14 1011.3
20260507022056 76 301 4.0 10.0 0.00 0.00 0.00 14 1011.3
20260507021557 77 343 4.0 11.0 0.00 0.00 0.00 13 1011.3
20260507021055 78 314 6.0 11.0 0.00 0.00 0.00 13 1011.3
20260507020554 78 279 5.0 11.0 0.00 0.00 0.00 13 1011.3
20260507020055 78 315 5.0 11.0 0.00 0.00 0.00 13 1011.3
20260507015554 79 350 5.0 11.0 0.00 0.00 0.00 12 1011.3
20260507015055 79 355 5.0 11.0 0.00 0.00 0.00 12 1011.3
20260507014606 79 321 5.0 11.0 0.00 0.00 0.00 12 1011.4
20260507014053 80 331 4.0 12.0 0.00 0.00 0.00 12 1011.3
20260507013552 80 9 6.0 12.0 0.00 0.00 0.00 12 1011.4
20260507013111 80 343 4.0 12.0 0.00 0.00 0.00 12 1011.3
20260507012552 80 342 8.0 12.0 0.00 0.00 0.00 11 1011.3
20260507012052 81 35 6.0 11.0 0.00 0.00 0.00 11 1011.3
20260507011552 81 351 5.0 11.0 0.00 0.00 0.00 11 1011.3
20260507011051 82 5 3.0 9.0 0.00 0.00 0.00 10 1011.3
20260507010552 82 346 4.0 10.0 0.00 0.00 0.00 9 1011.4
20260507010051 82 360 4.0 10.0 0.00 0.00 0.00 9 1011.3
20260507005550 82 327 2.0 8.0 0.00 0.00 0.00 9 1011.3
20260507005051 82 350 3.0 10.0 0.00 0.00 0.00 9 1011.3
20260507004550 82 22 3.0 10.0 0.00 0.00 0.00 10 1011.3
20260507004050 82 355 5.0 12.0 0.00 0.00 0.00 9 1011.3
20260507003549 82 355 1.0 6.0 0.00 0.00 0.00 9 1011.3
20260507003049 82 346 3.0 9.0 0.00 0.00 0.00 10 1011.4
20260507002550 82 333 4.0 10.0 0.00 0.00 0.00 9 1011.4
20260507002049 81 327 3.0 9.0 0.00 0.00 0.00 10 1011.4
20260507001608 81 263 4.0 11.0 0.00 0.00 0.00 10 1011.4
20260507001052 81 343 4.0 13.0 0.00 0.00 0.00 10 1011.4
20260507000549 81 297 4.0 13.0 0.00 0.00 0.00 11 1011.4
20260507000049 82 10 5.0 10.0 0.00 0.00 0.00 10 1011.4
20260506235549 83 340 4.0 10.0 0.00 0.00 0.00 10 1011.4
20260506235048 82 288 3.0 9.0 0.00 0.00 0.00 10 1011.4
20260506234548 83 249 3.0 9.0 0.00 0.00 0.00 10 1011.4